Address 0x531fd0d6bc89939f6beed105a48e9e7b0d39c813

Txn Hash
Block
From
To
Value [Txn Fee]
0x5e75044ddc28d7cc051e1e6b619175492739dcbb5cd65a42dd951006f947214d109585682021-07-27 14:41:3820 hrs 38 mins ago0x531fd0d6bc89939f6beed105a48e9e7b0d39c813OUT 0x50f08f4e63eb90247f7fc707630e3858a82763160 BNB0.03167683
0xd8a53fbdbf989f568e98214187b088f6deacc15660ceb99ec4f08df2ba48f00f109584682021-07-27 14:36:3820 hrs 43 mins ago0x531fd0d6bc89939f6beed105a48e9e7b0d39c813OUT 0x50f08f4e63eb90247f7fc707630e3858a82763160 BNB0.02809004
0x1f3317452a4362da385743f58be160d5a588aba609b5daccfbc5e3d1d4457ed1109565082021-07-27 12:58:3822 hrs 21 mins ago0x531fd0d6bc89939f6beed105a48e9e7b0d39c813OUT 0x0ee8b0133135268bec201d8d7752b2f90e5a6c920 BNB0.0305283
0x8d7401d4d37a773fe01fa79547ac5487ab4dcc6746bd1ade3d26edb09fbad126109552002021-07-27 11:53:1423 hrs 26 mins ago0x531fd0d6bc89939f6beed105a48e9e7b0d39c813OUT 0x0ee8b0133135268bec201d8d7752b2f90e5a6c920 BNB0.03144456
0x3292e86681ddffbda8029fcf39b531248d02f80aadb6413ebd4a02e5920b2650109527602021-07-27 9:51:141 day 1 hr ago0x531fd0d6bc89939f6beed105a48e9e7b0d39c813OUT 0x50f08f4e63eb90247f7fc707630e3858a82763160 BNB0.0006968
0xacf9ca2523a0b44a19d08e8feaee4cac7593454b00a75b40c43eb9e1bcff4205109520802021-07-27 9:17:141 day 2 hrs ago0x531fd0d6bc89939f6beed105a48e9e7b0d39c813OUT 0x50f08f4e63eb90247f7fc707630e3858a82763160 BNB0.02990637
0x070db309bfe49081c97dd2a3adb1bf03d4bac96dea1bc62f58e11e1c259c3a02109493172021-07-27 6:59:051 day 4 hrs ago0x531fd0d6bc89939f6beed105a48e9e7b0d39c813OUT 0x50f08f4e63eb90247f7fc707630e3858a82763160 BNB0.02731164
0xf36b8ea6f5b51ed5780b8e7fe6894afb0da8b982aa917d8bd77ff6bc6389b7af109486862021-07-27 6:27:321 day 4 hrs ago0x531fd0d6bc89939f6beed105a48e9e7b0d39c813OUT 0x0ee8b0133135268bec201d8d7752b2f90e5a6c920 BNB0.03083798
0xc9416b8c82bfbe0823968eef8483df19ae55ba677ad57a1616a5703b9b069f76109482602021-07-27 6:06:141 day 5 hrs ago0x531fd0d6bc89939f6beed105a48e9e7b0d39c813OUT 0x0ee8b0133135268bec201d8d7752b2f90e5a6c920 BNB0.03082639
0x94a1f5c343be3c87a9cfcc88d0a69da6ce7ae4e51aa7485cbd55e4ac5104eb52109462982021-07-27 4:28:081 day 6 hrs ago0x531fd0d6bc89939f6beed105a48e9e7b0d39c813OUT 0x50f08f4e63eb90247f7fc707630e3858a82763160 BNB0.02762582
0x9c1f23cea06bcc8c6dc309c43360166b645eee3b56a51a4be07aec8f434b40ea109457342021-07-27 3:59:561 day 7 hrs ago0x531fd0d6bc89939f6beed105a48e9e7b0d39c813OUT 0x50f08f4e63eb90247f7fc707630e3858a82763160 BNB0.03070326
0xef881b1fa334416e61fe9332fee4b4e07776a25f8c558dfa9d1c178865acd67b109445102021-07-27 2:58:441 day 8 hrs ago0x531fd0d6bc89939f6beed105a48e9e7b0d39c813OUT 0x50f08f4e63eb90247f7fc707630e3858a82763160 BNB0.0305792
0x1d701d6415b1659c1d6d752091fbefec4ac764a33819c33cab67a1c0ff9598ea109441082021-07-27 2:38:381 day 8 hrs ago0x531fd0d6bc89939f6beed105a48e9e7b0d39c813OUT 0x0ee8b0133135268bec201d8d7752b2f90e5a6c920 BNB0.02798886
0x07311b748bb998618f653999a542657dc11eb656e81f2b204f7405857b80b183109437172021-07-27 2:19:051 day 9 hrs ago0x531fd0d6bc89939f6beed105a48e9e7b0d39c813OUT 0x0ee8b0133135268bec201d8d7752b2f90e5a6c920 BNB0.02802827
0x47f8d774f325e8bf055c925fa83ae2ce657a11f652cc3d15835fee03efa7aab7109435532021-07-27 2:10:531 day 9 hrs ago0x531fd0d6bc89939f6beed105a48e9e7b0d39c813OUT 0x50f08f4e63eb90247f7fc707630e3858a82763160 BNB0.03112137
0xd07b9bb6d8862e2d0f721f88a4b3b473a16c3ba0c2b1fac29d907ce53b313f34109427362021-07-27 1:28:531 day 9 hrs ago0x531fd0d6bc89939f6beed105a48e9e7b0d39c813OUT 0x0ee8b0133135268bec201d8d7752b2f90e5a6c920 BNB0.03030711
0x9361241b95bda07924368d94993c75fa88442d1a55e3779aa630bb904aacd4db109418652021-07-27 0:33:001 day 10 hrs ago0x531fd0d6bc89939f6beed105a48e9e7b0d39c813OUT 0x50f08f4e63eb90247f7fc707630e3858a82763160 BNB0.02974248
0x070f72e76b077897b3cbf4d63804cbdd262f7ea0981abd0fe4802211db971620109411852021-07-26 23:52:071 day 11 hrs ago0x531fd0d6bc89939f6beed105a48e9e7b0d39c813OUT 0x0ee8b0133135268bec201d8d7752b2f90e5a6c920 BNB0.02936588
0xba465c2cc25d868614d1d3e4d0b9273bf182895f59f4b30dc22b087f4687f278109407422021-07-26 23:29:581 day 11 hrs ago0x531fd0d6bc89939f6beed105a48e9e7b0d39c813OUT 0x50f08f4e63eb90247f7fc707630e3858a82763160 BNB0.02990004
0x402642516e2f865ba77b2127de0f33ce4446e67504e603b3dcfb6ad69ed166f0109375822021-07-26 20:51:581 day 14 hrs ago0x531fd0d6bc89939f6beed105a48e9e7b0d39c813OUT 0x0ee8b0133135268bec201d8d7752b2f90e5a6c920 BNB0.03028515
0x9bb513f1b6a7d361b25eeb58b98ce7553bad1286aabda67b4c8d69c6ceafd2b9109374542021-07-26 20:45:341 day 14 hrs ago0x531fd0d6bc89939f6beed105a48e9e7b0d39c813OUT 0x0ee8b0133135268bec201d8d7752b2f90e5a6c920 BNB0.03081594
0xcd5dd5354d25d12a91b056823ddac5bc384cdc9d36e3bcb94760a9b1075ca2c3109363052021-07-26 19:48:071 day 15 hrs ago0x531fd0d6bc89939f6beed105a48e9e7b0d39c813OUT 0x0ee8b0133135268bec201d8d7752b2f90e5a6c920 BNB0.02870115
0x20270a2b23cc7a628b9c7849f9fce513641a3bb5e05f6c2974343cf36b15a533109331222021-07-26 17:08:581 day 18 hrs ago0x531fd0d6bc89939f6beed105a48e9e7b0d39c813OUT 0x0ee8b0133135268bec201d8d7752b2f90e5a6c920 BNB0.02718387
0x01fca26732d6d9a908838369a926fdfa21e78c6423fd581a35da8c50e736a1a1109327162021-07-26 16:48:401 day 18 hrs ago0x531fd0d6bc89939f6beed105a48e9e7b0d39c813OUT 0x0ee8b0133135268bec201d8d7752b2f90e5a6c920 BNB0.02987713
0xbacfe5f3a0b3c54421fcb26118ab897d78b23cea16e2f4e24012b96ba3be7514109319482021-07-26 16:10:161 day 19 hrs ago0x531fd0d6bc89939f6beed105a48e9e7b0d39c813OUT 0x50f08f4e63eb90247f7fc707630e3858a82763160 BNB0.0006968
[ Download CSV Export 
Parent Txn Hash Block From To Value
Loading

Contract Name:
0 BNB

Compiler Version
0

Optimization Enabled:
0 BNB

Other Settings:
-NA-
Block Transaction Gas Used Reward
Age Block Fee Address BC Fee Address Voting Power Jailed Incoming
Block Uncle Number Difficulty Gas Used Reward
Loading